{"data":{"norad_id":64696,"intl_designator":"2025-142A","name":"STARLINK-34497","alt_names":[],"object_type":"PAYLOAD","status":"ACTIVE","operator":null,"country":"US","launch_date":"2025-06-28","launch_site_code":"AFWTR","launch_vehicle":null,"mission":null,"orbit_class":"UNKNOWN","rcs_meters":null,"size_class":null,"mass_kg":null,"dimensions":null,"purposes":["comms"],"wikipedia_slug":null,"has_3d_model":false,"image_url":null,"decayed_at":null,"tle_current":{"epoch":"2026-05-25T05:00:37.010880Z","epoch_age_seconds":57083,"freshness":"FRESH","line1":"1 64696U 25142A   26145.20876170  .00002401  00000+0  20895-3 0  9997","line2":"2 64696  70.0000 121.4871 0003261 267.4302  92.6483 14.98336570 51105","mean_motion":14.9833657,"eccentricity":0.0003261,"inclination_deg":70,"raan_deg":121.4871,"arg_perigee_deg":267.4302,"mean_anomaly_deg":92.6483,"bstar":0.00020895,"rev_number":5110,"period_min":96.106577709706,"perigee_km":569.76912255929,"apogee_km":574.30202511195,"semimajor_km":6950.1725738356,"source":"CELESTRAK","updated_at":"2026-05-25T13:38:20.509987Z"}}}